Location: Riedlingen
(48.1569°N, 9.4757°E)
Time: 23:43:55
(UTC+01:00)

OTV 5 (USA 277) - Visible Passes

Search period start: 21 January 2018 00:00
Search period end: 31 January 2018 00:00
Orbit: 404 x 417 km, 43.0° (Epoch: 07 September)

Date Brightness Start Highest point End Pass type
(mag) Time Alt. Az. Time Alt. Az. Time Alt. Az.
23 Jan ? 19:17:16 10° SSW 19:18:11 13° S 19:18:11 13° S visible
24 Jan ? 18:27:10 10° S 18:28:32 12° SSE 18:29:40 11° SE visible
24 Jan ? 20:02:15 10° SW 20:02:26 11° SW 20:02:26 11° SW visible
25 Jan ? 19:11:27 10° SW 19:13:51 24° S 19:13:51 24° S visible
26 Jan ? 18:20:46 10° SSW 18:23:19 20° SSE 18:25:15 13° ESE visible
26 Jan ? 19:57:04 10° WSW 19:58:01 17° SW 19:58:01 17° SW visible
27 Jan ? 19:06:07 10° WSW 19:09:10 31° S 19:09:24 31° SSE visible
28 Jan ? 18:15:15 10° SW 18:18:12 28° S 18:20:46 12° ESE visible
28 Jan ? 19:52:04 10° WSW 19:53:32 21° SW 19:53:32 21° SW visible
29 Jan ? 19:01:03 10° WSW 19:04:08 34° S 19:04:55 29° SSE visible
30 Jan ? 18:10:05 10° WSW 18:13:10 33° S 18:16:15 10° ESE visible
30 Jan ? 19:47:13 10° WSW 19:49:06 22° SW 19:49:06 22° SW visible
